#timestamp,LO_Frequency,Hit,StdDev 
1701010815.5,286047001.2,N
1701010835.4,286047000.6,N
1701010855.2,286046999.7,N
1701010875.0,286047002.4,N
1701010875.9,286047002.4,N
1701010895.8,286046999.9,N
1701010915.6,286047002.6,N
1701010935.5,286047002.3,N
1701010955.3,286047000.4,N
1701010975.1,286047000.6,N
1701010995.9,286046999.9,N
1701011015.7,286047000.4,N
1701011035.5,286047000.5,N
1701011055.4,286046999.9,N
1701011075.2,286046998.1,N
1701011095.0,286047001.2,N
1701011096.0,286047001.2,N
1701011115.8,286046998.6,N
1701011135.6,286046999.0,N
1701011155.5,286046999.6,N
1701011175.3,286046999.3,N
1701011195.1,286046996.5,N
1701011215.9,286046997.9,N
1701011235.7,286046995.5,N
1701011255.6,286046997.9,N
1701011275.4,286046995.3,N
1701011295.2,286046997.7,N
1701011315.1,286046996.5,N
1701011316.0,286046996.5,N
1701011335.8,286046999.6,N
1701011355.6,286046999.3,N
1701011375.5,286046998.8,N
1701011395.3,286046997.3,N
1701011415.2,286046996.8,N
1701011435.9,286046997.0,N
1701011455.7,286046997.4,N
1701011475.6,286046997.3,N
1701011495.4,286046997.8,N
1701011515.3,286046998.0,N
1701011535.1,286046997.5,N
1701011555.8,286046997.6,N
1701011575.7,286046995.7,N
1701011595.5,286046996.0,N
1701011615.4,286046995.8,N
1701011635.2,286046995.8,N
1701011655.0,286046997.6,N
1701011655.9,286046997.6,N
1701011675.8,286046997.6,N
1701011695.6,286046995.3,Y
1701011715.4,286046999.2,P
1701011735.3,286046999.5,N
1701011755.1,286046997.0,P
1701011775.9,286046999.1,N
1701011795.7,286046998.4,N
1701011815.5,286046998.1,N
1701011835.4,286046998.2,N
1701011855.2,286046998.5,N
1701011875.0,286046999.2,N
1701011875.9,286046999.2,N
1701011895.8,286046997.1,Y
1701011915.6,286047000.7,P
1701011935.5,286046998.3,N
1701011955.3,286046999.0,N
1701011975.1,286046998.1,N
1701011995.9,286047000.8,N
1701012015.7,286047000.8,N
1701012035.6,286047000.8,N
1701012055.4,286047001.0,N
1701012075.2,286047001.1,N
1701012095.1,286047001.0,N
1701012096.0,286047001.0,N
1701012115.8,286047000.1,N
1701012135.6,286047000.8,N
1701012155.5,286046998.1,N
1701012175.3,286047001.2,N
1701012195.2,286046998.4,N
1701012215.9,286047000.8,N
1701012235.7,286047001.2,N
1701012255.6,286047001.0,N
1701012275.4,286047000.3,N
1701012295.2,286047000.0,N
1701012315.1,286047001.8,N
1701012316.0,286047001.8,N
1701012335.8,286047001.8,N
1701012355.7,286047004.1,Y
1701012375.5,286047003.7,P
1701012395.3,286047003.2,N
1701012415.2,286047001.7,N
1701012435.0,286047002.4,N
1701012435.9,286047002.4,N
1701012455.8,286047002.1,N
1701012475.6,286047002.0,N
1701012495.4,286047002.2,N
1701012515.3,286047002.7,Y
1701012535.1,286046998.1,P
1701012555.8,286047000.7,N
1701012575.7,286046998.4,N
1701012595.5,286046998.5,N
1701012615.4,286046998.9,N
1701012635.2,286046999.3,N
1701012655.0,286046999.3,N
1701012655.9,286046999.3,N
1701012675.8,286046998.2,N
1701012695.6,286046998.1,N
1701012715.4,286047000.9,N
1701012735.3,286047000.2,N
1701012755.1,286047000.0,N
1701012775.9,286047002.8,N
1701012795.7,286047001.1,N
1701012815.5,286047000.5,N
1701012835.4,286047002.6,N
1701012855.2,286047000.1,N
1701012875.0,286047002.8,N
1701012875.9,286047002.8,N
1701012895.8,286046999.7,N
1701012915.6,286046999.8,N
1701012935.5,286047000.8,N
1701012955.3,286046998.4,N
1701012975.1,286047000.9,N
1701012995.9,286046999.7,N
1701013015.7,286047000.2,N
1701013035.5,286047000.1,N
1701013055.4,286046999.8,N
1701013075.2,286047002.6,N
1701013095.1,286046999.7,N
1701013096.0,286046999.7,N
1701013115.8,286047002.7,N
1701013135.6,286047002.6,N
1701013155.5,286047002.2,N
1701013175.3,286047000.2,N
1701013195.1,286047000.5,N
1701013215.9,286047000.3,N
1701013235.7,286047000.9,N
1701013255.5,286047000.8,N
1701013275.4,286047000.3,N
1701013295.2,286047002.3,N
1701013315.1,286047002.2,N
1701013316.0,286047002.2,N
1701013335.8,286047004.3,Y
1701013355.6,286047002.4,P
1701013375.5,286047002.5,P
1701013395.3,286047004.0,P
1701013415.2,286047004.4,Y
1701013435.9,286046998.1,P
1701013455.7,286046998.9,N
1701013475.6,286046998.2,N
1701013495.4,286047000.6,N
1701013515.2,286047001.2,N
1701013535.1,286046998.6,N
1701013536.0,286046998.6,N
1701013555.8,286046998.3,N
1701013575.7,286047001.2,N
1701013595.5,286047000.2,N
1701013615.3,286047001.0,N
1701013635.2,286046998.3,N
1701013655.0,286046998.2,N
1701013655.9,286046998.2,N
1701013675.7,286047000.4,N
1701013695.6,286047000.2,N
1701013715.4,286047000.4,N
1701013735.3,286047002.7,N
1701013755.1,286046999.9,N
1701013775.8,286047000.7,N
1701013795.7,286047001.0,N
1701013815.5,286046999.8,N
1701013835.3,286047001.8,N
1701013855.2,286047001.9,N
1701013875.0,286047002.7,N
1701013875.9,286047002.7,N
1701013895.8,286047001.8,N
1701013915.6,286047002.5,N
1701013935.4,286047000.2,N
1701013955.3,286047000.6,N
1701013975.1,286047002.0,N
1701013995.8,286047001.5,N
1701014015.7,286047004.2,N
1701014035.5,286047001.6,N
1701014055.4,286047002.0,N
1701014075.2,286047002.4,N
1701014095.0,286047000.0,N
1701014095.9,286047000.0,N
1701014115.8,286047000.0,N
1701014135.6,286046999.7,N
1701014155.4,286047002.1,N
1701014175.3,286047004.3,N
1701014195.1,286047001.9,N
1701014215.9,286047004.0,N
1701014235.7,286047001.6,N
1701014255.5,286047002.6,N
1701014275.4,286047001.8,N
1701014295.2,286047003.9,Y
1701014315.0,286047002.7,P
1701014316.0,286047002.7,P
1701014335.8,286046999.7,N
1701014355.6,286047002.4,N
1701014375.5,286047002.5,N
1701014395.3,286046999.8,N
